GFSFLT2_925_spd_195.txt.gz
Wind_Speed
4 2 3 5 4 3 4 1 3 2 4 3 12 17 18 11 6 4 6 12 15 16 21 21 23 25 27 24 23 24 25 24
2 4 3 4 7 2 0 3 3 2 3 5 17 19 17 16 14 11 5 6 11 13 18 20 22 23 24 24 26 24 24 25
4 3 2 4 4 3 2 2 3 4 1 4 7 11 14 14 16 16 14 9 9 12 17 19 19 23 25 25 24 25 27 25
2 2 4 1 2 3 4 4 0 2 1 4 6 9 12 14 14 15 16 16 12 11 15 18 22 23 26 26 25 26 26 25
4 4 3 2 2 3 3 1 6 4 1 5 8 9 13 15 15 15 16 18 16 7 8 15 19 22 24 26 28 26 23 24
8 3 1 3 1 2 4 4 4 6 7 0 12 14 15 16 15 15 15 16 16 15 9 9 14 18 21 23 24 23 24 24
3 1 1 3 3 2 6 2 6 4 4 7 10 11 11 10 14 15 16 17 16 15 13 12 9 13 16 20 21 23 24 25
4 1 1 3 4 2 4 2 2 2 3 8 9 8 9 9 12 15 15 16 16 15 14 14 12 9 13 18 20 21 23 26
3 2 2 4 2 4 3 1 2 3 4 9 11 12 13 11 8 12 15 15 15 14 14 15 12 12 9 14 18 21 23 24
2 2 5 5 6 5 2 0 1 2 5 8 10 13 15 5 5 13 15 16 15 16 17 15 16 13 11 8 16 20 21 22
2 2 2 4 2 1 3 3 2 4 6 9 12 13 5 4 8 15 15 16 18 18 18 17 15 13 13 11 10 17 20 22
2 3 4 5 3 3 3 6 3 3 6 10 12 9 12 11 20 19 20 21 19 22 22 18 17 14 10 11 5 11 16 19
1 3 1 2 2 1 4 3 3 5 8 11 11 12 18 20 22 24 23 22 22 20 19 22 18 15 15 11 11 6 6 14
1 3 3 1 2 4 5 6 6 9 12 13 15 17 18 18 18 21 24 25 23 21 22 20 19 15 16 16 13 12 9 9
3 2 1 2 6 5 6 8 10 13 16 16 18 20 20 20 20 19 25 25 22 20 21 21 18 15 15 19 15 15 12 10
2 1 3 7 7 10 9 10 14 16 18 18 20 21 20 19 18 16 23 24 22 19 20 21 20 19 18 17 14 13 14 13
4 7 10 4 2 8 13 16 17 18 19 20 20 22 21 19 19 21 24 25 22 20 19 22 22 21 21 18 13 13 14 15
4 7 8 13 13 16 18 19 18 19 21 23 19 19 23 19 24 24 24 25 23 22 21 22 21 22 22 22 17 16 15 16
5 10 13 17 17 16 15 18 20 20 20 21 25 24 25 19 26 25 27 25 25 26 24 22 20 22 24 21 19 18 17 19

GFSFLT2_925_spd_198.txt.gz
Wind_Speed
3 3 7 7 7 8 3 4 6 4 8 10 13 15 13 14 14 12 4 7 12 12 16 18 19 21 22 22 21 21 21 20
7 4 4 7 4 6 4 2 3 7 3 6 12 13 13 14 13 12 11 8 5 10 16 18 18 19 20 22 22 21 22 23
5 11 2 6 8 6 6 5 8 6 5 6 9 11 12 12 13 13 13 12 10 8 10 15 17 19 21 23 23 22 23 22
3 4 3 5 8 8 7 3 3 7 3 7 8 9 11 12 12 13 14 14 13 8 6 8 14 17 20 21 23 23 23 23
11 8 7 8 5 7 8 9 12 8 3 6 7 8 10 12 12 13 14 14 14 13 10 4 8 12 16 18 21 23 22 23
12 8 6 4 6 5 11 11 11 8 8 9 6 7 7 9 11 13 13 14 13 13 12 11 8 9 12 15 18 21 23 23
12 8 10 10 8 8 10 13 10 10 8 9 5 5 6 6 9 12 13 15 14 13 11 14 11 8 9 12 15 18 23 24
14 8 9 11 5 6 5 7 10 8 9 6 5 5 7 8 7 11 13 14 14 14 14 13 14 14 10 11 14 17 20 24
13 3 8 13 11 5 3 4 6 9 7 5 6 8 10 10 4 9 12 13 14 14 15 15 14 13 12 11 13 16 20 21
5 4 10 7 5 2 4 2 1 1 3 5 7 10 11 4 4 10 13 13 13 15 16 16 16 15 14 13 13 16 18 18
5 9 6 7 3 1 4 2 1 4 3 6 10 14 1 3 7 15 17 17 16 18 18 18 16 15 15 14 12 14 15 16
3 7 5 9 5 3 3 8 7 3 7 10 12 11 10 19 18 19 21 21 21 22 21 20 17 16 15 14 11 11 13 14
5 6 6 5 3 2 7 6 8 9 10 12 12 11 17 18 20 25 24 24 23 23 22 21 19 17 17 15 11 12 12 13
2 3 6 4 3 5 9 11 10 10 10 13 14 16 18 19 19 21 26 27 24 23 22 21 20 19 17 16 12 11 13 11
3 4 4 2 6 8 9 10 12 12 15 15 17 19 19 19 20 19 25 27 25 23 23 22 20 20 19 17 14 11 12 17
3 5 4 8 6 4 9 11 13 15 17 17 19 20 21 20 19 17 25 26 27 25 24 23 22 20 21 20 16 14 15 15
6 2 10 4 5 13 14 15 15 16 17 19 20 20 21 21 20 23 26 27 26 24 25 24 23 21 20 21 18 17 16 16
4 8 7 12 14 14 15 15 16 18 19 21 21 17 19 20 26 25 26 27 27 24 28 27 23 23 22 20 21 20 18 17
5 10 11 14 12 11 16 18 18 18 18 16 22 25 23 18 23 25 28 29 28 26 27 28 23 23 23 22 20 22 21 20

GFSFLT2_925_spd_201.txt.gz
Wind_Speed
9 6 9 7 11 11 8 8 4 5 20 16 12 12 11 11 11 12 9 7 9 12 14 16 17 18 19 20 20 20 19 19
11 8 8 13 11 7 7 7 2 5 10 10 11 12 11 10 12 9 9 9 11 6 15 16 18 18 19 21 22 21 20 20
10 11 12 9 11 9 9 9 7 5 4 10 11 11 12 11 11 11 10 9 7 6 11 12 15 17 19 20 22 21 22 22
15 7 3 8 15 13 7 7 4 7 6 10 10 10 12 12 12 12 12 11 12 11 9 4 6 13 17 19 21 22 21 22
14 14 11 9 12 11 14 12 11 9 6 10 10 11 10 11 11 11 12 12 12 12 12 13 7 6 12 15 17 20 21 22
7 6 12 11 6 8 11 12 13 5 16 13 8 8 8 9 9 10 10 11 12 12 12 13 10 12 8 12 14 18 21 23
18 15 10 10 17 13 10 11 13 17 8 12 6 5 6 7 7 8 10 11 11 11 10 11 11 13 16 12 13 16 20 23
18 19 17 15 15 9 12 14 13 11 12 11 7 5 5 5 3 6 8 10 10 10 10 12 11 11 9 12 12 15 17 22
14 15 13 11 10 12 6 8 6 9 11 6 5 5 6 6 1 3 6 9 10 11 11 11 13 13 11 11 13 15 17 21
11 5 10 6 7 7 4 5 0 4 2 4 5 8 9 6 4 6 11 13 13 14 13 15 16 17 15 14 13 15 17 19
9 11 6 9 5 4 4 4 5 4 2 5 8 11 10 10 10 13 15 15 16 17 18 18 19 20 19 19 17 16 15 17
8 9 10 12 9 5 3 5 10 5 6 8 10 9 9 18 16 16 20 21 20 21 21 20 20 21 22 21 20 19 14 17
9 8 7 9 6 1 6 6 6 6 8 10 10 10 14 16 17 22 23 23 23 22 22 21 21 21 24 23 23 21 17 13
5 8 5 5 3 4 7 7 9 10 10 11 13 15 16 17 18 19 23 24 24 23 23 23 22 22 23 24 25 23 18 15
5 5 6 3 4 4 6 7 9 11 13 14 16 17 18 18 19 20 24 27 27 23 18 18 25 27 24 22 24 24 22 18
1 6 5 6 3 2 5 10 12 13 14 15 17 19 20 19 19 15 22 27 29 25 23 23 23 24 27 24 23 26 25 21
5 8 4 9 9 10 11 11 12 13 15 17 19 19 19 19 20 25 26 28 28 26 26 27 28 25 28 24 25 24 26 25
6 7 5 8 9 8 10 13 15 14 14 16 18 18 19 17 24 27 26 28 27 28 29 29 27 27 25 28 26 23 25 27
4 6 6 8 6 6 10 12 15 15 16 18 22 22 22 21 25 27 30 27 29 28 28 27 27 25 28 26 26 22 24 27

GFSFLT2_925_spd_204.txt.gz
Wind_Speed
17 14 14 15 8 15 8 18 10 7 6 11 13 13 14 13 12 12 14 2 13 14 16 19 19 17 17 21 19 21 21 20
9 7 11 14 12 10 5 4 7 3 4 4 13 12 12 13 12 11 10 10 11 11 4 21 19 22 19 20 19 20 18 21
14 10 13 10 10 10 11 12 5 7 10 14 13 13 12 13 12 12 10 10 10 10 12 10 15 17 22 20 20 20 21 21
14 13 15 8 12 11 5 6 7 8 9 19 12 13 13 13 11 12 11 10 11 12 16 21 21 18 23 25 23 22 21 21
13 11 17 5 10 10 12 12 10 9 5 13 13 10 11 12 12 11 11 11 11 11 13 16 19 21 25 6 21 21 23 23
13 9 9 20 23 13 9 8 9 6 14 13 13 11 12 9 10 10 10 10 10 10 10 11 13 14 18 19 19 10 18 25
2 7 10 16 20 23 11 8 6 9 13 15 11 7 7 8 8 8 9 10 9 8 6 10 10 11 13 15 17 17 14 16
15 16 16 20 18 12 10 6 9 8 16 12 10 6 5 3 5 6 6 7 7 8 9 8 8 10 11 10 14 16 14 18
14 14 13 14 9 6 5 2 3 5 12 7 8 6 4 5 1 6 1 6 8 9 9 7 10 11 12 14 13 13 16 16
11 13 13 10 8 8 6 9 8 4 7 7 6 6 9 8 7 9 10 9 8 11 12 13 15 16 16 19 18 16 15 16
10 11 8 10 10 8 3 14 13 4 8 6 7 8 8 13 10 9 11 11 13 16 16 14 14 14 15 18 21 19 18 18
10 9 11 11 9 7 3 5 11 10 8 8 9 7 6 15 13 12 16 17 16 17 16 18 18 16 16 16 17 22 20 19
10 9 7 10 7 4 5 5 5 7 7 8 7 8 12 14 14 18 17 20 20 18 18 17 18 16 16 16 17 20 22 23
9 12 5 7 2 3 5 4 8 7 9 10 11 12 14 14 14 15 16 20 20 21 22 17 19 20 20 18 19 20 19 22
6 6 8 7 9 5 6 4 7 8 10 11 13 14 15 13 14 16 22 22 23 23 23 21 21 23 22 21 24 23 21 22
1 9 10 6 7 11 11 9 9 9 10 12 14 17 18 17 16 14 20 21 24 26 23 24 25 26 26 26 25 21 22 23
5 9 10 10 8 6 6 7 9 12 14 15 15 16 16 14 13 18 22 24 24 25 26 27 28 29 28 28 26 24 22 23
7 6 4 6 4 7 5 8 11 10 13 13 13 13 15 14 20 18 20 25 26 27 28 29 30 27 28 27 25 22 22 20
8 4 4 4 10 11 6 8 8 11 11 16 20 20 19 13 17 23 23 24 24 26 31 30 27 27 27 25 24 23 23 22

GFSFLT2_925_spd_207.txt.gz
Wind_Speed
8 7 8 10 5 10 8 4 4 6 5 5 17 10 9 11 14 8 6 1 8 10 20 23 26 27 30 30 27 24 23 23
15 8 8 7 5 5 4 4 2 4 4 4 18 6 8 8 10 9 8 9 11 12 11 19 29 30 31 32 29 26 24 25
2 5 7 4 4 4 6 5 4 6 5 2 14 4 9 10 10 9 9 10 11 12 20 24 9 13 28 31 30 27 26 26
6 5 6 3 7 2 5 4 4 6 2 8 19 14 11 10 9 8 9 8 9 13 17 20 22 25 3 13 25 27 26 24
6 10 6 6 11 16 15 2 4 5 6 14 12 7 11 11 9 8 8 9 8 10 12 18 21 19 18 14 6 3 19 25
5 9 4 9 18 14 7 4 4 5 8 12 10 11 11 9 8 8 8 7 7 7 9 16 19 19 17 16 15 15 9 14
4 10 7 5 13 7 11 13 4 8 10 11 7 8 7 11 9 7 8 7 6 5 6 9 12 15 16 15 12 17 17 15
3 3 12 8 12 4 3 18 12 19 15 12 11 6 7 8 10 8 7 6 5 5 6 4 4 8 10 13 18 19 17 18
3 7 9 3 4 4 2 12 16 16 10 11 9 9 7 7 8 7 6 5 3 3 6 5 5 7 11 13 18 19 20 20
2 4 2 2 7 9 19 15 14 14 11 11 9 9 12 9 8 7 5 4 4 6 8 9 9 12 14 16 15 16 18 22
5 3 3 7 6 6 9 11 13 12 13 11 8 11 8 8 7 5 5 6 7 9 10 10 9 12 12 13 15 16 18 20
1 1 3 4 7 8 2 5 9 11 10 9 8 3 2 4 4 5 8 10 12 18 15 14 18 18 17 16 15 15 18 22
4 3 4 5 6 6 3 3 8 9 8 9 5 2 4 8 7 9 10 15 16 19 15 18 20 21 17 16 16 19 18 21
2 1 3 9 6 5 4 8 9 9 8 6 6 7 6 7 8 10 12 16 18 18 18 23 22 17 16 17 22 20 21 25
4 4 4 7 8 7 9 8 7 5 4 4 6 6 7 6 7 8 13 18 21 22 22 22 23 24 24 26 22 23 26 26
7 4 7 10 9 8 7 6 3 6 8 7 7 8 8 7 7 8 16 17 19 20 20 22 23 27 27 27 28 26 27 27
9 8 10 8 7 7 7 8 8 7 7 7 7 8 7 6 7 12 16 18 20 19 19 21 25 28 29 29 27 26 26 26
3 5 7 5 6 8 8 4 4 6 7 9 10 8 9 7 14 14 16 19 18 21 22 24 27 28 29 27 29 28 24 21
5 7 6 10 8 6 3 2 6 8 7 5 11 11 11 10 15 20 19 19 20 24 26 27 28 27 28 30 28 27 25 23